Weather Roundup
Issued by NWS

Home | Current Version | Previous Version | Graphics & Text | Print | Product List | Glossary Off
Versions: 1 2 3 4 5 6 7 8 9 10 11 12 13 14 15 16 17 18 19 20 21 22 23 24 25 26 27 28 29 30 31 32 33 34 35 36 37 38 39 40 41 42 43 44 45 46 47 48 49 50

427
NZUS93 KARX 060559
HRRWXR

CURRENT HOURLY OBSERVATIONS ACROSS
MUCH OF THE UPPER MISSISSIPPI VALLEY
NATIONAL WEATHER SERVICE LA CROSSE WI
100 AM CDT FRI MAY 06 2016


...SOUTHEAST MINNESOTA...


CITY           SKY/WX    TMP DP  RH WIND       PRES   REMARKS
ROCHESTER      CLEAR     60  40  47 SW14      29.93F
ROCHESTER/MAYO FAIR      64  38  38 SW12G20   29.91F
WINONA         CLEAR     54  46  76 CALM      29.91F
AUSTIN         CLEAR     54  39  58 S3        29.94S
ALBERT LEA     CLEAR     64  37  36 SW7       29.94S
DODGE CENTER   CLEAR     55  39  54 SW10      29.93S
PRESTON        CLEAR     55  36  47 SW12      29.93F
OWATONNA         N/A     61  39  44 SW8       29.93S
FARIBAULT      NOT AVBL
$$

...ELSEWHERE IN MINNESOTA...


CITY           SKY/WX    TMP DP  RH WIND       PRES   REMARKS
MINNEAPOLIS    CLEAR     66  41  40 SW8       29.87F
INTNL FALLS    CLEAR     60  43  53 SW6       29.70S
DULUTH         CLEAR     61  42  49 W10       29.78F
RED WING       CLEAR     52  43  71 CALM      29.87F
REDWOOD FALLS  CLEAR     60  41  49 SW10      29.90F
MANKATO        CLEAR     63  39  42 SW7       29.92S
WORTHINGTON    CLEAR     62  42  47 S17       29.95S
FAIRMONT       CLEAR     61  39  44 SW8       29.94S
$$

...SOUTHWEST WISCONSIN...


CITY           SKY/WX    TMP DP  RH WIND       PRES   REMARKS
LA CROSSE      PTCLDY    57  45  64 SE9       29.92S
PRAIRIE DU CHI CLEAR     51  42  71 CALM      29.96S
BOSCOBEL       PTCLDY    49  42  77 CALM      29.96S
LONE ROCK      NOT AVBL
PLATTEVILLE    CLOUDY    53  40  61 S5        29.97S
FORT MC COY    PTCLDY    46  41  81 CALM      29.93F HAZE
CAMP DOUGLAS     N/A     47  47 100 SE5       29.93F
MAUSTON-NEW LI CLOUDY    51  43  72 SE5       29.94R
VIROQUA        FAIR      55  38  52 SW7       29.95S
WIS DELLS      CLOUDY    51  37  58 S5        29.95S
$$

...ELSEWHERE IN WISCONSIN...


CITY           SKY/WX    TMP DP  RH WIND       PRES   REMARKS
MILWAUKEE      CLEAR     46  37  71 SW6       29.97F
MADISON        CLEAR     46  38  73 CALM      29.96S
GREEN BAY      PTCLDY    50  42  74 CALM      29.92S
EAU CLAIRE     NOT AVBL
BLACK RVR FLS  MOCLDY    47  40  78 CALM      29.91F
MEDFORD        CLEAR     51  41  69 SE5       29.91S
WAUSAU         CLEAR     54  43  66 CALM      29.90F
WIS RAPIDS     CLEAR     49  39  68 SW3       29.93F
MARSHFIELD     CLEAR     54  38  54 S5        29.91S
RICE LAKE      CLEAR     54  40  60 CALM      29.87F
$$

...NORTHEAST IOWA...


CITY           SKY/WX    TMP DP  RH WIND       PRES   REMARKS
WATERLOO       CLEAR     56  36  47 CALM      29.97S
DUBUQUE        CLOUDY    50  40  68 S5        29.98F
DECORAH        CLEAR     57  36  44 S5        29.94F
MASON CITY     CLEAR     56  40  55 SW7       29.97S
CHARLES CITY   CLEAR     55  37  50 SW8       29.96S
OELWEIN        CLEAR     52  37  58 S8        29.98S
$$

...ELSEWHERE IN IOWA...


CITY           SKY/WX    TMP DP  RH WIND       PRES   REMARKS
DES MOINES     CLEAR     57  40  52 SW3       30.00S
IOWA CITY      CLEAR     49  39  68 CALM      30.01S
FORT DODGE     CLEAR     54  41  62 S3        29.96F
MARSHALLTOWN   CLEAR     55  37  50 SW6       29.97F
CEDAR RAPIDS   PTCLDY    50  40  68 S3        29.99R
$$

...NORTHERN ILLINOIS...


CITY           SKY/WX    TMP DP  RH WIND       PRES   REMARKS
CHICAGO-OHARE  CLEAR     45  38  76 CALM      29.99R
CHICAGO-MIDWAY CLEAR     47  38  71 W3        29.99R
MOLINE         CLEAR     46  41  82 CALM      29.99S
ROCKFORD       CLEAR     46  40  79 S3        30.00S
PEORIA         CLEAR     47  39  74 CALM      30.01F
$$

NOTE: "FAIR" INDICATES FEW OR NO CLOUDS BELOW 12,000 FEET WITH NO
SIGNIFICANT WEATHER AND/OR OBSTRUCTIONS TO VISIBILITY. WIND
SPEEDS ARE IN MILES-PER-HOUR.




USA.gov is the U.S. government's official web portal to all federal, state and local government web resources and services.